Location: ????????
(55.6189°N, 38.3031°E)
Time: 02:23:35
(UTC+00:00)

Cosmos 494 Rocket - Pass Details

Date: 15 November 2019
Orbit: 742 x 771 km, 74.1° (Epoch: 08 December)

Event Time Altitude Azimuth Distance (km) Brightness Sun altitude
Exits shadow 03:34:07 - 332° (NNW) 2,774 6.5 -12.0°
Reaches altitude 10° 03:35:16 10° 332° (NNW) 2,328 6.1 -11.8°
Maximum altitude 03:40:34 85° 62° (ENE) 780 4.1 -11.1°
Drops below altitude 10° 03:45:49 10° 152° (SSE) 2,301 7.2 -10.4°
Sets 03:48:10 0° 153° (SSE) 3,219 8.0 -10.1°
